Location: Kapuskasing
(49.3803°N, 82.4001°W)
Time: 11:20:50
(UTC-04:00)

RS-44 - Pass Details

Date: 15 March 2026
Orbit: 1175 x 1510 km, 82.5° (Epoch: 11 April)

Event Time Altitude Azimuth Distance (km) Brightness Sun altitude
Rises 06:41:04 0° 337° (NNW) 4,417 ? -10.9°
Reaches altitude 10° 06:46:28 10° 308° (NW) 3,518 ? -10.0°
Maximum altitude 06:48:49 11° 291° (WNW) 3,435 ? -9.6°
Drops below altitude 10° 06:51:12 10° 275° (W) 3,574 ? -9.2°
Enters shadow 06:51:18 10° 274° (W) 3,585 ? -9.2°
